Location: Peterborough
(44.3091°N, 78.3197°W)
Time: 05:35:33
(UTC-04:00)

Vanguard 3 - Pass Details

Date: 01 March 2024
Orbit: 510 x 3236 km, 33.3° (Epoch: 12 April)

Event Time Altitude Azimuth Distance (km) Brightness Sun altitude
Rises 22:50:03 0° 268° (W) 7,020 12.2 -47.3°
Reaches altitude 10° 22:54:46 10° 265° (W) 6,120 11.8 -47.8°
Enters shadow 23:08:18 45° 235° (SW) 3,882 10.3 -49.1°
Maximum altitude 23:13:32 54° 196° (SSW) 3,462 - -49.6°
Drops below altitude 10° 23:28:09 10° 125° (SE) 4,875 - -50.7°
Sets 23:31:26 0° 121° (ESE) 5,567 - -50.9°
